Weather History for Jefferson City, MO

Change the Weather History Date:

Tuesday, July 23, 2013

  Actual Average Record
Temperature  
Mean Temperature 81 °F -  
Max Temperature 90 °F 89 °F 110 °F (1934)
Min Temperature 73 °F 65 °F 46 °F (1947)
Cooling Degree Days 16    
Growing Degree Days 31 (Base 50)    
Moisture  
Dew Point 68 °F    
Average Humidity 65    
Maximum Humidity 87    
Minimum Humidity 53    
Precipitation  
Precipitation 0.00 in - - ()
Sea Level Pressure  
Sea Level Pressure 29.82 in    
Wind  
Wind Speed 4 mph (North)    
Max Wind Speed 10 mph    
Max Gust Speed -    
Visibility 9 miles    
Events Thunderstorm    
Averages and records for this station are not official NWS values.
T = Trace of Precipitation, MM = Missing Value Source: NWS Daily Summary

Daily Weather History Graph

Daily Weather History Graph

Search for Another Location

Airport:

Trip Planner

Search our weather history database for the weather conditions in past years. The results will help you decide how hot, cold, wet, or windy it might be!

Date:

Astronomy

Jul. 23, 2013 Rise Set
Actual Time 6:02 AM CDT 8:26 PM CDT
Civil Twilight 5:32 AM CDT 8:57 PM CDT
Nautical Twilight 4:55 AM CDT 9:34 PM CDT
Astronomical Twilight 4:13 AM CDT 10:15 PM CDT
Moon 8:57 PM CDT (7/23) 7:10 AM CDT (7/23)
Length of Visible Light 15h 24m
Length of Day
14h 24m
Full, 99% of the Moon is Illuminated
Jul 23
Full
Jul 29
Last Quarter
Aug 6
New
Aug 14
First Quarter
Aug 20
Full

Hourly Weather History & Observations

Time (CDT) Temp. Heat Index Dew Point Humidity Pressure Visibility Wind Dir Wind Speed Gust Speed Precip Events Conditions
12:53 AM 79.0 °F - 66.9 °F 66% 29.80 in 10.0 mi North 3.5 mph - N/A   Clear
1:53 AM 79.0 °F - 66.9 °F 66% 29.83 in 10.0 mi Calm Calm - N/A   Clear
2:53 AM 77.0 °F - 66.9 °F 71% 29.82 in 10.0 mi North 5.8 mph - N/A   Scattered Clouds
3:14 AM 77.0 °F - 66.2 °F 69% 29.82 in 10.0 mi Calm Calm - N/A Thunderstorm Clear
3:29 AM 75.2 °F - 68.0 °F 78% 29.83 in - North - - N/A   Unknown
3:53 AM 73.0 °F - 69.1 °F 87% 29.76 in 10.0 mi ESE 4.6 mph - N/A   Unknown
4:53 AM 75.0 °F - 66.9 °F 76% 29.77 in 10.0 mi SSW 3.5 mph - N/A   Clear
5:53 AM 73.9 °F - 66.9 °F 79% 29.76 in 10.0 mi Calm Calm - N/A   Clear
6:53 AM 73.9 °F - 66.9 °F 79% 29.79 in 10.0 mi WNW 4.6 mph - N/A   Clear
7:53 AM 75.9 °F - 66.9 °F 74% 29.81 in 10.0 mi West 4.6 mph - N/A   Clear
8:53 AM 79.0 °F - 68.0 °F 69% 29.81 in 10.0 mi WSW 3.5 mph - N/A   Clear
9:53 AM 82.9 °F 87.0 °F 70.0 °F 65% 29.81 in 10.0 mi West 4.6 mph - N/A   Clear
10:53 AM 84.9 °F 90.7 °F 72.0 °F 65% 29.84 in 10.0 mi NNW 9.2 mph - N/A   Scattered Clouds
11:53 AM 86.0 °F 92.2 °F 72.0 °F 63% 29.83 in 10.0 mi NNW 5.8 mph - N/A   Clear
12:53 PM 88.0 °F 94.7 °F 72.0 °F 59% 29.81 in 10.0 mi North 6.9 mph - N/A   Clear
1:53 PM 89.1 °F 96.0 °F 72.0 °F 57% 29.80 in 10.0 mi ENE 6.9 mph - N/A   Partly Cloudy
2:53 PM 88.0 °F 92.9 °F 70.0 °F 55% 29.81 in 10.0 mi North 9.2 mph - N/A   Overcast
3:53 PM 89.1 °F 94.1 °F 70.0 °F 53% 29.80 in 10.0 mi North 8.1 mph - N/A   Clear
4:53 PM 87.1 °F 91.3 °F 69.1 °F 55% 29.79 in 10.0 mi North 9.2 mph - N/A   Clear
5:53 PM 87.1 °F 91.3 °F 69.1 °F 55% 29.77 in 10.0 mi North 6.9 mph - N/A   Clear
6:53 PM 86.0 °F 89.4 °F 68.0 °F 55% 29.81 in 10.0 mi NNE 4.6 mph - N/A   Clear
7:02 PM 84.2 °F 88.4 °F 69.8 °F 62% 29.85 in 0.5 mi NE 3.5 mph - N/A   Haze
7:05 PM 84.2 °F 88.4 °F 69.8 °F 62% 29.85 in 2.5 mi NE 3.5 mph - N/A   Haze
7:12 PM 84.2 °F 87.3 °F 68.0 °F 58% 29.85 in 10.0 mi NNE 5.8 mph - N/A   Clear
7:53 PM 82.9 °F 85.8 °F 68.0 °F 60% 29.81 in 10.0 mi Variable 5.8 mph - N/A   Clear
8:53 PM 80.1 °F 82.1 °F 66.0 °F 62% 29.83 in 10.0 mi Variable 4.6 mph - N/A   Partly Cloudy
9:53 PM 78.1 °F - 63.0 °F 60% 29.85 in 10.0 mi NNE 8.1 mph - N/A   Clear
10:53 PM 75.9 °F - 61.0 °F 60% 29.85 in 10.0 mi NE 10.4 mph - N/A   Clear
11:53 PM 73.0 °F - 61.0 °F 66% 29.88 in 10.0 mi NE 6.9 mph - N/A   Clear